TimeEDT,TemperatureF,Dew PointF,Humidity,Sea Level PressureIn,VisibilityMPH,Wind Direction,Wind SpeedMPH,Gust SpeedMPH,PrecipitationIn,Events,Conditions,WindDirDegrees,DateUTC
12:02 AM,78.8,77.0,94,30.04,10.0,ESE,12.7,-,N/A,,Mostly Cloudy,110,2013-06-01 04:02:00
12:53 AM,77.0,75.9,96,30.03,10.0,ESE,13.8,-,N/A,,Partly Cloudy,120,2013-06-01 04:53:00
1:09 AM,77.0,75.2,94,30.02,10.0,ESE,8.1,-,N/A,,Partly Cloudy,110,2013-06-01 05:09:00
1:47 AM,75.2,75.2,100,30.02,1.8,ESE,5.8,-,0.11,Rain,Heavy Rain,120,2013-06-01 05:47:00
1:53 AM,75.0,75.0,100,30.02,1.5,Calm,Calm,-,0.19,Rain,Heavy Rain,0,2013-06-01 05:53:00
2:00 AM,75.2,75.2,100,30.01,3.0,Calm,Calm,-,0.01,Rain,Light Rain,0,2013-06-01 06:00:00
2:15 AM,77.0,75.2,94,30.00,10.0,ESE,3.5,-,0.02,,Overcast,120,2013-06-01 06:15:00
2:20 AM,77.0,75.2,94,30.00,10.0,ESE,4.6,-,0.02,,Overcast,120,2013-06-01 06:20:00
2:53 AM,77.0,75.9,96,29.99,10.0,SE,10.4,-,0.02,,Partly Cloudy,130,2013-06-01 06:53:00
3:53 AM,78.1,77.0,96,29.99,10.0,SE,9.2,-,N/A,,Partly Cloudy,130,2013-06-01 07:53:00
4:53 AM,77.0,75.9,96,29.97,10.0,SSE,6.9,-,N/A,,Partly Cloudy,160,2013-06-01 08:53:00
5:53 AM,77.0,77.0,100,29.98,10.0,SE,4.6,-,N/A,,Mostly Cloudy,130,2013-06-01 09:53:00
6:25 AM,77.0,77.0,100,29.99,10.0,SE,3.5,-,N/A,,Mostly Cloudy,140,2013-06-01 10:25:00
6:51 AM,77.0,75.2,94,29.99,10.0,SE,4.6,-,N/A,,Overcast,130,2013-06-01 10:51:00
6:53 AM,77.0,75.9,96,30.00,10.0,SE,3.5,-,N/A,,Overcast,130,2013-06-01 10:53:00
7:45 AM,77.0,77.0,100,30.01,10.0,SE,5.8,-,0.00,,Overcast,130,2013-06-01 11:45:00
7:53 AM,77.0,75.9,96,30.02,10.0,ESE,5.8,-,0.00,,Overcast,120,2013-06-01 11:53:00
8:53 AM,79.0,77.0,94,30.02,10.0,East,5.8,-,N/A,,Mostly Cloudy,100,2013-06-01 12:53:00
9:53 AM,82.0,77.0,85,30.03,10.0,ESE,8.1,-,N/A,,Mostly Cloudy,110,2013-06-01 13:53:00
10:53 AM,82.0,75.9,82,30.04,10.0,ESE,10.4,-,N/A,,Mostly Cloudy,110,2013-06-01 14:53:00
11:53 AM,81.0,75.9,85,30.04,10.0,SE,11.5,-,N/A,,Mostly Cloudy,130,2013-06-01 15:53:00
12:53 PM,82.0,77.0,85,30.02,10.0,SE,13.8,-,0.00,,Mostly Cloudy,130,2013-06-01 16:53:00
1:53 PM,82.9,77.0,82,30.01,10.0,ESE,15.0,-,N/A,,Mostly Cloudy,120,2013-06-01 17:53:00
2:08 PM,82.4,77.0,84,30.00,10.0,SSE,11.5,-,N/A,Thunderstorm,Thunderstorm,150,2013-06-01 18:08:00
2:22 PM,78.8,78.8,100,30.00,1.8,SE,15.0,21.9,0.08,Rain,Heavy Rain,140,2013-06-01 18:22:00
2:28 PM,78.8,78.8,100,30.00,0.8,SSE,9.2,17.3,0.21,Rain-Thunderstorm,Heavy Rain,150,2013-06-01 18:28:00
2:38 PM,78.8,78.8,100,30.00,2.0,SE,8.1,-,0.26,Rain-Thunderstorm,Light Rain,130,2013-06-01 18:38:00
2:44 PM,78.8,78.8,100,30.00,3.0,SSE,11.5,17.3,0.26,Rain-Thunderstorm,Light Thunderstorms and Rain,150,2013-06-01 18:44:00
2:53 PM,78.1,78.1,100,30.00,10.0,SE,10.4,-,0.26,Thunderstorm,Thunderstorm,140,2013-06-01 18:53:00
3:05 PM,78.8,78.8,100,30.00,10.0,SE,11.5,-,N/A,,Overcast,130,2013-06-01 19:05:00
3:13 PM,77.0,77.0,100,30.00,10.0,SE,10.4,-,N/A,,Mostly Cloudy,140,2013-06-01 19:13:00
3:53 PM,77.0,77.0,100,29.99,10.0,East,6.9,-,N/A,,Mostly Cloudy,90,2013-06-01 19:53:00
4:53 PM,77.0,77.0,100,30.00,8.0,East,8.1,-,0.01,Rain,Light Rain,90,2013-06-01 20:53:00
5:38 PM,77.0,77.0,100,29.98,6.0,ESE,5.8,-,0.02,Rain,Light Rain,110,2013-06-01 21:38:00
5:53 PM,77.0,75.9,96,30.00,6.0,South,5.8,-,0.05,Rain,Light Rain,170,2013-06-01 21:53:00
5:59 PM,77.0,75.2,94,29.99,5.0,South,5.8,-,0.01,Rain-Thunderstorm,Light Thunderstorms and Rain,180,2013-06-01 21:59:00
6:20 PM,77.0,77.0,100,30.01,6.0,South,3.5,-,0.04,Rain,Light Rain,170,2013-06-01 22:20:00
6:53 PM,77.0,77.0,100,30.00,7.0,South,6.9,-,0.08,Rain,Light Rain,180,2013-06-01 22:53:00
7:53 PM,75.0,75.0,100,30.01,10.0,Calm,Calm,-,0.02,,Mostly Cloudy,0,2013-06-01 23:53:00
8:53 PM,75.0,75.0,100,30.01,10.0,SW,4.6,-,N/A,,Scattered Clouds,220,2013-06-02 00:53:00
9:53 PM,75.0,75.0,100,30.01,10.0,West,3.5,-,N/A,,Clear,260,2013-06-02 01:53:00
10:53 PM,75.0,75.0,100,30.03,10.0,Calm,Calm,-,N/A,,Clear,0,2013-06-02 02:53:00
11:53 PM,75.0,75.0,100,30.02,10.0,NNW,4.6,-,N/A,,Clear,330,2013-06-02 03:53:00